LSP Weather Reports


time (UTC)temp
F
wind
direction
speed
knots
gust
knots
rain 1hr
in
rain 24hr
in
rain mn
in
humidity
%
barometer
mb
20260507020055 54 308 1.7 7.8 0.02 0.29 0.29 80 1004.6
20260507014552 54 337 0.9 3.5 0.06 0.28 0.28 83 1004.7
20260507013054 55 288 1.7 4.3 0.07 0.27 0.27 83 1004.5
20260507011552 55 284 1.7 5.2 0.08 0.27 0.27 82 1004.5
20260507010110 55 289 1.7 7.0 0.08 0.27 0.27 79 1004.4
20260507004553 56 340 1.7 7.0 0.02 0.21 0.21 72 1004.1
20260507003057 60 53 1.7 7.0 0.01 0.20 0.20 74 1003.5
20260507001559 60 351 0.0 7.0 0.00 0.19 0.19 74 1003.3
20260507000101 60 184 2.6 10.4 0.00 0.19 0.19 74 1003.3
20260506234602 60 189 3.5 14.8 0.00 0.21 0.19 73 1003.1
20260506233100 61 276 2.6 11.3 0.00 0.21 0.19 71 1003.0
20260506231552 61 222 3.5 12.2 0.00 0.21 0.19 70 1002.9
20260506230057 61 355 1.7 10.4 0.00 0.21 0.19 70 1002.8
20260506224554 61 200 3.5 11.3 0.00 0.21 0.19 69 1003.1
20260506223059 62 280 3.5 10.4 0.00 0.21 0.19 69 1003.0
20260506221555 62 0 1.7 12.2 0.00 0.21 0.19 70 1003.2
20260506220054 62 198 2.6 7.8 0.00 0.21 0.19 70 1003.4
20260506214601 62 210 0.9 10.4 0.00 0.21 0.19 71 1003.4
20260506213056 62 213 1.7 7.8 0.00 0.21 0.19 71 1003.5
20260506211554 62 216 0.9 17.4 0.00 0.21 0.19 72 1003.6
20260506210053 61 59 1.7 7.8 0.01 0.21 0.19 73 1003.6
20260506204555 61 291 1.7 5.2 0.05 0.21 0.19 75 1003.7
20260506203053 61 0 0.0 5.2 0.07 0.21 0.19 78 1004.0
20260506201553 60 0 1.7 5.2 0.07 0.21 0.19 78 1004.2
20260506200052 60 257 0.0 3.5 0.07 0.20 0.18 77 1004.2
20260506194552 60 0 0.0 0.9 0.04 0.16 0.14 76 1004.3
20260506193052 61 0 0.0 1.7 0.02 0.14 0.12 74 1004.4
20260506191557 61 0 0.0 4.3 0.04 0.14 0.12 73 1004.6
20260506190058 61 165 0.9 4.3 0.04 0.12 0.10 72 1004.9
20260506184558 61 179 1.7 6.1 0.06 0.12 0.10 72 1005.0
20260506183053 61 185 1.7 7.8 0.08 0.12 0.10 74 1004.9
20260506181552 61 0 0.9 5.2 0.07 0.10 0.08 73 1005.6
20260506180055 62 0 1.7 5.2 0.06 0.08 0.06 71 1005.7
20260506174559 63 271 0.0 3.5 0.04 0.06 0.04 71 1005.7
20260506173122 64 0 0.0 1.7 0.02 0.04 0.02 69 1005.6
20260506171556 65 0 0.0 6.1 0.01 0.03 0.01 65 1005.5
20260506170056 66 0 0.9 3.5 0.00 0.02 0.00 62 1005.5
20260506164552 66 0 1.7 7.8 0.00 0.02 0.00 60 1005.5
20260506163056 64 355 0.0 3.5 0.00 0.02 0.00 62 1005.7
20260506161600 64 0 0.0 2.6 0.00 0.02 0.00 63 1006.0
20260506160109 65 0 0.0 0.0 0.00 0.02 0.00 61 1006.5
20260506154601 65 0 0.0 1.7 0.00 0.02 0.00 59 1007.1
20260506153054 65 0 0.0 6.1 0.00 0.02 0.00 59 1007.0
20260506151555 64 234 0.0 4.3 0.00 0.02 0.00 60 1007.3
20260506150100 64 0 0.0 5.2 0.00 0.02 0.00 60 1007.0
20260506144604 64 180 1.7 7.0 0.00 0.02 0.00 60 1007.3
20260506143055 64 0 2.6 9.6 0.00 0.02 0.00 60 1007.0
20260506141551 63 273 1.7 9.6 0.00 0.02 0.00 61 1007.0
20260506140105 62 294 2.6 7.8 0.00 0.02 0.00 61 1007.0
20260506134554 62 308 1.7 4.3 0.00 0.02 0.00 61 1007.3
20260506133130 62 198 0.9 10.4 0.00 0.02 0.00 61 1007.6
20260506131548 62 0 2.6 11.3 0.00 0.02 0.00 61 1007.5
20260506130126 62 265 1.7 7.0 0.00 0.02 0.00 61 1007.4
20260506124554 62 271 2.6 9.6 0.00 0.02 0.00 61 1007.6
20260506123052 60 360 2.6 6.1 0.00 0.02 0.00 63 1007.3
20260506121554 57 22 0.0 2.6 0.00 0.02 0.00 66 1007.5
20260506120103 56 0 0.0 2.6 0.00 0.02 0.00 66 1007.8
20260506114602 57 0 0.0 0.0 0.00 0.02 0.00 65 1007.7
20260506113055 56 0 0.0 0.0 0.00 0.02 0.00 66 1007.7
20260506111556 55 0 0.0 0.0 0.00 0.02 0.00 66 1007.7
20260506110057 55 0 0.0 0.0 0.00 0.02 0.00 66 1007.8
20260506104600 56 0 0.0 2.6 0.00 0.02 0.00 65 1008.2
20260506103057 57 0 0.0 2.6 0.00 0.02 0.00 63 1008.2
20260506101550 58 0 0.0 0.0 0.00 0.02 0.00 64 1007.7
20260506100108 58 0 0.0 1.7 0.00 0.02 0.00 61 1007.7
20260506094602 60 198 0.9 2.6 0.00 0.02 0.00 59 1007.3
20260506093053 60 0 0.0 3.5 0.00 0.02 0.00 59 1007.4
20260506091553 61 309 0.0 2.6 0.00 0.02 0.00 58 1007.4
20260506090054 61 311 0.0 4.3 0.00 0.02 0.00 57 1007.5
20260506084554 61 243 0.9 4.3 0.00 0.02 0.00 57 1007.6
20260506083057 62 199 0.9 4.3 0.00 0.02 0.00 56 1007.6
20260506081605 62 246 1.7 7.8 0.00 0.02 0.00 55 1007.4
20260506073052 63 284 2.6 6.1 0.00 0.02 0.00 54 1007.3
20260506071555 63 183 2.6 10.4 0.00 0.02 0.00 53 1007.4
20260506061551 64 180 4.3 9.6 0.00 0.02 0.00 51 1007.0
20260506044554 65 293 1.7 8.7 0.00 0.02 0.00 52 1007.2
20260506043107 65 284 0.0 6.1 0.00 0.02 0.00 53 1007.4
20260506041601 66 0 0.0 6.1 0.00 0.02 0.00 52 1007.2
20260506040055 66 285 1.7 5.2 0.00 0.02 0.00 52 1007.1
20260506034612 65 284 1.7 6.1 0.00 0.02 0.02 54 1007.1
20260506033051 62 200 0.9 11.3 0.00 0.02 0.02 62 1007.1
20260506031601 57 0 0.0 3.5 0.00 0.02 0.02 70 1007.3
20260506030056 57 192 0.0 1.7 0.00 0.02 0.02 69 1007.1
20260506024555 58 0 0.0 0.0 0.00 0.02 0.02 66 1007.3
20260506023058 61 0 0.0 0.0 0.00 0.02 0.02 63 1007.2
20260506021553 62 0 0.0 2.6 0.00 0.02 0.02 62 1007.0